Weather History for Avalon, CA

Change the Weather History Date:

Tuesday, December 11, 2012

  Actual Average Record
Temperature  
Mean Temperature 58 °F -  
Max Temperature 66 °F 58 °F 75 °F (2004)
Min Temperature 50 °F 48 °F 44 °F (2007)
Degree Days  
Heating Degree Days 7    
Growing Degree Days 8 (Base 50)    
Moisture  
Dew Point 45 °F    
Average Humidity 74    
Maximum Humidity 100    
Minimum Humidity 21    
Precipitation  
Precipitation 0.00 in - - ()
Sea Level Pressure  
Sea Level Pressure 29.99 in    
Wind  
Wind Speed 8 mph (WSW)    
Max Wind Speed 12 mph    
Max Gust Speed -    
Visibility 6 miles    
Events Fog    
Averages and records for this station are not official NWS values.
T = Trace of Precipitation, MM = Missing Value Source: NWS Daily Summary

Daily Weather History Graph

Daily Weather History Graph

Search for Another Location

Airport:

Trip Planner

Search our weather history database for the weather conditions in past years. The results will help you decide how hot, cold, wet, or windy it might be!

Date:

Astronomy

Dec. 11, 2012 Rise Set
Actual Time 6:47 AM PST 4:46 PM PST
Civil Twilight 6:20 AM PST 5:14 PM PST
Nautical Twilight 5:49 AM PST 5:45 PM PST
Astronomical Twilight 5:19 AM PST 6:15 PM PST
Moon 4:51 AM PST (12/11) 3:28 PM PST (12/11)
Length of Visible Light 10h 53m
Length of Day
9h 58m
Waning Crescent, 4% of the Moon is Illuminated
Dec 11
Waning Crescent
Dec 13
New
Dec 19
First Quarter
Dec 28
Full
Jan 4
Last Quarter

Hourly Weather History & Observations

Time (PST) Temp. Dew Point Humidity Pressure Visibility Wind Dir Wind Speed Gust Speed Precip Events Conditions
12:51 AM 60.1 °F 30.0 °F 32% 30.03 in 10.0 mi NW 11.5 mph - N/A   Clear
1:51 AM 59.0 °F 28.0 °F 31% 30.02 in 10.0 mi NW 10.4 mph - N/A   Clear
2:51 AM 61.0 °F 30.0 °F 31% 30.01 in 10.0 mi NW 9.2 mph - N/A   Clear
3:51 AM 61.0 °F 28.9 °F 30% 30.01 in 10.0 mi NNW 6.9 mph - N/A   Clear
4:51 AM 62.1 °F 30.0 °F 30% 30.01 in 10.0 mi NW 5.8 mph - N/A   Clear
5:51 AM 62.1 °F 30.0 °F 30% 30.02 in 10.0 mi Calm Calm - N/A   Clear
6:51 AM 63.0 °F 28.0 °F 27% 30.02 in 10.0 mi Calm Calm - N/A   Clear
7:51 AM 63.0 °F 30.9 °F 30% 30.03 in 10.0 mi WSW 4.6 mph - N/A   Clear
8:51 AM 66.0 °F 25.0 °F 21% 30.02 in 10.0 mi WSW 6.9 mph - N/A   Clear
9:51 AM 64.0 °F 30.9 °F 29% 30.04 in 10.0 mi WNW 3.5 mph - N/A   Clear
10:51 AM 64.0 °F 51.1 °F 63% 30.02 in 10.0 mi WSW 6.9 mph - N/A   Clear
11:51 AM 62.1 °F 50.0 °F 65% 30.00 in 10.0 mi WSW 8.1 mph - N/A   Clear
12:51 PM 63.0 °F 37.9 °F 40% 29.97 in 10.0 mi WSW 8.1 mph - N/A   Clear
1:51 PM 64.9 °F 37.0 °F 36% 29.95 in 10.0 mi WSW 8.1 mph - N/A   Clear
2:51 PM 63.0 °F 39.0 °F 41% 29.95 in 10.0 mi WSW 8.1 mph - N/A   Clear
3:51 PM 61.0 °F 46.9 °F 60% 29.95 in 10.0 mi WSW 6.9 mph - N/A   Clear
4:51 PM 57.0 °F 46.0 °F 67% 29.95 in 10.0 mi WSW 9.2 mph - N/A   Clear
5:47 PM 53.6 °F 48.2 °F 82% 29.99 in 2.0 mi WSW 10.4 mph - N/A   Haze
5:49 PM 53.6 °F 51.8 °F 94% 29.99 in 1.0 mi WSW 11.5 mph - N/A   Mist
5:51 PM 53.1 °F 52.0 °F 96% 29.96 in 0.8 mi WSW 11.5 mph - N/A   Mist
6:28 PM 51.8 °F 51.8 °F 100% 30.00 in 1.2 mi WSW 10.4 mph - N/A   Mostly Cloudy
6:31 PM 51.8 °F 51.8 °F 100% 30.00 in 4.0 mi WSW 9.2 mph - N/A   Mostly Cloudy
6:38 PM 51.8 °F 50.0 °F 94% 30.00 in 10.0 mi WSW 9.2 mph - N/A   Scattered Clouds
6:51 PM 52.0 °F 48.9 °F 89% 29.97 in 10.0 mi WSW 11.5 mph - N/A   Clear
7:46 PM 53.6 °F 51.8 °F 94% 30.00 in 2.5 mi WSW 8.1 mph - N/A   Partly Cloudy
7:49 PM 51.8 °F 51.8 °F 100% 30.00 in 1.0 mi WSW 9.2 mph - N/A   Mist
8:06 PM 51.8 °F 50.0 °F 94% 30.00 in 2.0 mi WSW 10.4 mph - N/A   Scattered Clouds
8:13 PM 53.6 °F 50.0 °F 88% 30.00 in 5.0 mi West 11.5 mph - N/A   Scattered Clouds
8:17 PM 51.8 °F 50.0 °F 94% 30.00 in 1.2 mi WSW 10.4 mph - N/A   Scattered Clouds
8:19 PM 51.8 °F 50.0 °F 94% 30.00 in 0.8 mi WSW 10.4 mph - N/A   Mist
8:27 PM 53.6 °F 50.0 °F 88% 30.00 in 1.5 mi WSW 10.4 mph - N/A   Partly Cloudy
8:29 PM 53.6 °F 50.0 °F 88% 30.00 in 4.0 mi WSW 9.2 mph - N/A   Partly Cloudy
8:45 PM 51.8 °F 50.0 °F 94% 30.01 in 1.0 mi WSW 8.1 mph - N/A   Mist
8:51 PM 52.0 °F 51.1 °F 97% 29.98 in 0.2 mi WSW 9.2 mph - N/A Fog Fog
9:33 PM 50.0 °F 48.2 °F 94% 30.00 in 1.5 mi West 8.1 mph - N/A   Mostly Cloudy
9:35 PM 50.0 °F 46.4 °F 87% 30.00 in 5.0 mi West 9.2 mph - N/A   Scattered Clouds
9:51 PM 52.0 °F 51.1 °F 97% 29.97 in 0.8 mi WSW 6.9 mph - N/A   Mist
10:48 PM 51.8 °F 51.8 °F 100% 30.00 in 1.2 mi SSE 3.5 mph - N/A   Overcast
10:51 PM 51.1 °F 51.1 °F 100% 29.98 in 1.8 mi SSE 4.6 mph - N/A   Overcast
11:08 PM 51.8 °F 50.0 °F 94% 30.00 in 3.0 mi Calm Calm - N/A   Overcast
11:24 PM 50.0 °F 48.2 °F 94% 29.99 in 10.0 mi SE 3.5 mph - N/A   Scattered Clouds
11:43 PM 51.8 °F 51.8 °F 100% 29.99 in 1.8 mi SSE 6.9 mph - N/A   Scattered Clouds
11:48 PM 51.8 °F 51.8 °F 100% 29.99 in 1.0 mi SSE 8.1 mph - N/A   Mist
11:51 PM 51.1 °F 51.1 °F 100% 29.96 in 1.0 mi South 8.1 mph - N/A   Mist
11:56 PM 51.8 °F 51.8 °F 100% 29.99 in 2.0 mi South 6.9 mph - N/A   Mostly Cloudy